Location: Del Amo
(33.8464°N, 118.2104°W)
Time: 18:28:16
(UTC+00:00)

S-56A Canister/Altair - Pass Details

Date: 13 September 2024
Orbit: 636 x 2487 km, 38.9° (Epoch: 14 October)

Event Time Altitude Azimuth Distance (km) Brightness Sun altitude
Rises 09:04:45 0° 290° (WNW) 4,805 - -48.5°
Reaches altitude 10° 09:07:39 10° 286° (WNW) 4,043 - -48.2°
Maximum altitude 09:18:29 52° 214° (SW) 2,589 - -47.0°
Exits shadow 09:32:27 10° 144° (SE) 5,115 11.5 -45.3°
Drops below altitude 10° 09:32:29 10° 144° (SE) 5,126 11.5 -45.3°
Sets 09:36:44 0° 140° (SE) 6,147 12.1 -44.8°
